map of USM home
USM - Airport
Location
City:  Koh Samui, Nakhon Si Thammarat, Thailand
ICAO:VTSM
IATA:USM

Details
Type:Airport (Aerodrome, Airfield)
Use:Public/Civil
Latitude:932'52"N (9.547794)
Longitude:10003'44"E (100.062272)
Datum:WGS 1984
Elevation:64 ft (20 m)
Variation:0.39W (WMM2015 magnetic declination)
0.01 annual change
Runways:1
Longest:6759 × 148 ft (2060 × 45 m), paved

Time
Time Zone:UTC+7
Local Time:

Weather
METAR:VTSM 251230Z 29006KT 9999 FEW020 28/24 Q1008
TAF:VTSM 251100Z 2512/2612 28006KT 9999 FEW020 BKN100
TEMPO 2512/2516 28010G20KT 7000 -RA SCT015 OVC100
TEMPO 2606/2612 28010G20KT 6000 -RA SCT015 OVC100

Related Locations
Nearby:
Farthest:CHM: 12348 mi / 19871 km
Chimbote [Teniente FAP Jaime A. de Montrevil Morales], ANC, PE

Find:

   beyond  
but within

Other Information
Maps:
NOTAMs:
Links:
Sources:

  
flag of Thailand   

Sectional Chart

Flight Planning
at skyvector.com

Satellite Image

Google Maps Satellite view

 

Copyright © 2004-2017 Karl L. Swartz. All rights reserved.
The Great Circle Mapper name and logo are trademarks of the Great Circle Mapper.
All other trademarks mentioned herein belong to their respective owners.
Please see credits for attibutions and further copyright information.

  Follow gcmap on Facebook Follow gcmap on Twitter Follow gcmap on Google+ GCmap on LinkedIn

hCard Microformat

Geo Microformat